STARLINK-32440, 61714

Orbit data source: Space-Track

STARLINK-32440, 61714 is a payload satellite owned by SpaceX/Seattle (US) in LEO that was launched on Wed, 30 Oct 2024 UTC via an FALCON 9 launch vehicle from the Air Force Eastern Test Range (AFETR). Payloads include a variety of satellites, spacecraft, and rockets equipped with specific instruments for various scientific and technological missions. These include communications satellites like Starlink; space stations such as the ISS; scientific satellites like the Hubble; Earth observation satellites from companies like Planet Labs, Umbra, and HawkEye 360; GPS; miniature CubeSats for education and research; and military/defense satellites.

Loading next visibility...
STARLINK-32440 details
Identifier
61714, 2024-196H
Orbit
LEO
Last TLE update17 hours ago
Origin
Flag of USSpaceX/Seattle (US)
ManufacturerSpaceX/Seattle
MissionOperational spacecraft
Bus & MotorSTARLINK V2M, Unknown motor
Mass730 kg wet, ~700 kg dry
Launch date (UTC)
2024-10-30 (1 month ago)
Launch vehicle
FALCON 9
Launch site
Air Force Eastern Test Range (AFETR)
Object type
Payload
Rocket body
Debris
Shape & HBRUnknown
Radar Cross SectionLarge (>1 m²)

Expand to show TLE details & history

TLE from 17 hours ago
0 STARLINK-32440
1 61714U 24196H   24346.60416965 -.00001278  00000-0 -22016-4 0  9992
2 61714  53.1619  48.9724 0001125  82.9470 277.1663 15.39584416  7442
Epoch: 2024-12-11T14:30Z
Definitive object data (Epoch: 2024-12-11T14:30:00.257Z)
Latitude-0.00002°
Longitude110.67484°
Altitude448.145 km
Speed7.645 km/s
True Right ascension03h 15m 53s
True Declination0° 00' 00"
Sunlit
Object was in full shadow at TLE epoch
Visualization TLE readout
Latitude-53.24538°
Longitude13.32885°
Altitude466.622 km
Speed7.632 km/s
Apparent Right ascension19h 04m 22s
Apparent Declination-49° 02' 57"
Sunlit
Object is in daylight
Visualization observer readout
Local Sidereal Time05:39:42
Azimuth231.672° WSW
Elevation-72.44°
Doppler factor1
Orbital elements
Apogee altitude448.362 km
Perigee altitude446.827 km
Semi-major axis6,825.731 km
Eccentricity0.0001125
Inclination53.1619°
RAAN48.9724°
Arg. of periapsis82.947°
True anomaly277.15351°
Mean anomaly277.1663°
Eccentric anomaly277.1599°
Mean motion3.84875 °/min
BSTAR-0.000022016
Orbital period93.54 mins
Loading maneuver chart data...
Loading historical data...
Loading historical data...
Loading historical data...
Loading historical data...
Loading historical data...
Loading historical data...
Loading historical data...

STARLINK-32440 Visibility forecast

Observer location: undefined°, undefined

Span
Click to sort rows by Start time (UTC) header in descending order
Start Az.
Max El. time (UTC)
Max El. Az.
Max El.
End time (UTC)
End Az.
5 mins2024-12-12 07:51:14.443Z262.881° W2024-12-12 07:54:14.443Z347.813° N29.973°2024-12-12 07:56:14.443Z30.471° NE
5 mins2024-12-12 12:46:14.443Z334.855° NNW2024-12-12 12:49:14.443Z41.854° NE22.272°2024-12-12 12:51:14.443Z80.906° E
5 mins2024-12-12 14:24:14.443Z287.272° WNW2024-12-12 14:26:14.443Z222.497° SW34.388°2024-12-12 14:29:14.443Z154.4° SSE
|